VIIKKOHAASTE #2: 20 km Tempo 11.5. – 24.5.

KesäCup 2020:n toinen haaste on 20 km Tempo. Eli 20km aika-ajo valitsemallasi pyörällä ilman peesiä. Jos ajat pienen porukan kanssa samaan aikaan, minimietäisyys on 100 metriä pyöräilijöiden välillä. Haasteessa lasketaan kokonaisaika, eli liikenteen takia tehdyt pysähdykset on osa aikaa. Pyri siis löytämään reitti, missä pystyt ajamaan turvallisesti ja ehdottomasti liikennesääntöjä noudattaen koko 20 kilometriä.

Reitin aloitus- ja lopetuspaikka tulevat olla lähellä toisiaan(max. 500m etäisyys), jotta tuulen vaikutus aikaan kumoutuu mahdollisimman hyvin. Tee suorituksesi 11.5. – 24.5. välisenä aikana.

Ilmoita tuloksesi TÄSTÄ

Timestamp
Nimesi
Ikäryhmä
Edustamasi seura
20 km Tempo – Aika
5/13/2020 8:15:52 Taavi Mattila M20-M44 TriathlonSuomi ry 0:31:35
5/14/2020 19:56:51 Niklas Andersson M20-M44 TriathlonSuomi ry 0:37:08
5/15/2020 20:02:32 Juha-Matti Halonen M20-M44 TriathlonSuomi ry 0:26:15
5/17/2020 14:13:57 Jonna Hakala N45-N55 TriathlonSuomi ry 0:37:17
5/17/2020 14:53:37 Piia Autonen N20-N44 Muu seura 0:33:14
5/17/2020 14:55:57 Jarno Lillia M20-M44 Muu seura 0:37:51
5/18/2020 20:54:13 Tuomo Viskari M20-M44 Muu seura 0:33:07
5/18/2020 21:34:41 Kalle Luokola M20-M44 Downtown 65 Endurance Ry 0:27:44
5/18/2020 21:35:42 Joona Juntunen M20-M44 TriathlonSuomi ry 0:31:45
5/18/2020 21:38:30 Kalle Luokola M20-M44 Downtown 65 Endurance Ry 0:27:44
5/18/2020 23:54:13 Jouni Mäkelä M45-M55 TriathlonSuomi ry 0:33:13
5/19/2020 18:14:14 Tero Koponen M20-M44 Muu seura 0:34:12
5/20/2020 10:26:08 Juha Nyyssönen M20-M44 Muu seura 0:28:14
5/20/2020 18:40:16 Jarno Nummisto M20-M44 TriathlonSuomi ry 0:38:38
5/20/2020 21:05:08 Heikki Mönkkönen M45-M55 TriathlonSuomi ry 0:32:52
5/21/2020 13:11:02 Päivi Peltokumpu N45-N55 TriathlonSuomi ry 0:40:10
5/21/2020 13:37:15 Armi Sutinen N55-> TriathlonSuomi ry 0:41:29
5/21/2020 14:11:42 Suvi Kaunisto N45-N55 TriathlonSuomi ry 0:40:12
5/21/2020 19:18:42 J-P Halmeenmäki M55-> TriathlonSuomi ry 0:32:17
5/21/2020 21:07:38 Teemu Rautiainen M20-M44 TriathlonSuomi ry 0:31:00
5/22/2020 10:04:07 Jussi Koskenranta M20-M44 TriathlonSuomi ry 0:36:20
5/22/2020 13:03:36 Marko Keskikukko M45-M55 TriathlonSuomi ry 0:31:27
5/22/2020 13:50:27 Heidi Kuivamäki N20-N44 TriathlonSuomi ry 0:35:35
5/22/2020 14:48:50 Tom Perttala M45-M55 Velo Salo 0:32:53
5/22/2020 15:44:19 Ville Hiltunen M20-M44 Downtown 65 Endurance Ry 0:28:45
5/22/2020 15:47:37 Ville Hiltunen M20-M44 Downtown 65 Endurance Ry 0:28:45
5/22/2020 15:48:38 Otto Paaso M20-M44 TriathlonSuomi ry 0:31:10
5/22/2020 16:02:00 Karri Turunen M20-M44 TriathlonSuomi ry 0:32:05
5/22/2020 16:37:00 Lea Oja N20-N44 Helsinki Triathlon ry 0:36:23
5/22/2020 17:11:15 Sami Masalin M20-M44 TriathlonSuomi ry 0:38:36
5/22/2020 17:21:25 Janne Kallio M45-M55 Finntriathlon Masters ry 0:29:50
5/22/2020 17:41:33 Jari Takalo M20-M44 TriathlonSuomi ry 0:32:27
5/22/2020 19:44:41 Markus Kaarto M45-M55 Helsinki Triathlon ry 0:28:56
5/22/2020 19:57:18 Minna Lahtinen N45-N55 TriathlonSuomi ry 0:33:44
5/22/2020 20:52:35 Juha-Matti Halonen M20-M44 TriathlonSuomi ry 0:25:40
5/22/2020 21:02:37 Aleksi Varinen M20-M44 Kangasalan Triathlonseura 0:31:29
5/22/2020 21:30:15 Antti Viklund M20-M44 TriathlonSuomi ry 0:29:50
5/22/2020 21:30:49 Jari Käpylä M20-M44 Vihti Triathlon ry 0:38:58
5/23/2020 12:10:47 Jiska Druey M45-M55 TriathlonSuomi ry 0:36:46
5/23/2020 13:45:38 Eki Monni M45-M55 Helsinki Triathlon ry 0:31:59
5/23/2020 16:27:09 Heidi Nurminen N20-N44 TriathlonSuomi ry 0:39:15
5/23/2020 17:33:35 Heidi Nousiainen N20-N44 TriathlonSuomi ry 0:34:58
5/23/2020 20:16:14 Anna Mattila N20-N44 TriathlonSuomi ry 0:33:11
5/23/2020 21:19:52 Karol Mattila M20-M44 TriathlonSuomi ry 0:30:22
5/23/2020 21:57:37 Torsti Tähtinen M20-M44 TriathlonSuomi ry 0:32:37
5/24/2020 9:02:48 Miika Ruismäki M20-M44 TriathlonSuomi ry 0:33:12
5/24/2020 9:06:40 Miika Ruismäki M20-M44 TriathlonSuomi ry 0:33:12
5/24/2020 10:04:09 Enni Kukkasniemi N20-N44 TriathlonSuomi ry 0:32:39
5/24/2020 12:52:53 Tony Elomaa M45-M55 TriathlonSuomi ry 0:33:42
5/24/2020 13:07:12 Heidi Mattila N20-N44 TriathlonSuomi ry 0:38:36
5/24/2020 13:33:32 Laura Salonen N45-N55 Muu seura 0:40:14
5/24/2020 17:08:52 Michaela Åvall N20-N44 Diablos Rojos ry 0:30:27
5/24/2020 19:41:52 Tatu Koistinen M20-M44 TriathlonSuomi ry 0:29:33
5/24/2020 19:44:14 Maxim Kärkkäinen M55-> TriathlonSuomi ry 0:52:00
5/24/2020 19:45:39 Mervi Savo N55-> Helsinki Triathlon ry 0:33:44
5/24/2020 19:59:44 Jarkko Pakarinen M20-M44 Joroisten Sporttiklubi 0:31:07
5/24/2020 20:52:57 Greta Malkki N45-N55 Joroisten Sporttiklubi 0:40:20
5/24/2020 21:25:25 Anns Uimonen N45-N55 TriathlonSuomi ry 0:42:01
5/24/2020 21:39:13 Jussi Nykänen M45-M55 TriathlonSuomi ry 0:30:52
5/24/2020 22:00:39 Maltte Ovaska M20-M44 TriathlonSuomi ry 0:29:05
5/24/2020 22:18:24 Katri Mattelmäki N45-N55 Muu seura 0:45:33
5/24/2020 23:21:10 Eveliina Edvik N20-N44 TriathlonSuomi ry 0:35:59
5/25/2020 9:40:12 Perttu Mukkala M20-M44 Kangasalan Triathlonseura 0:32:03
5/25/2020 18:18:16 Lauri Nissilä M20-M44 TriathlonSuomi ry 0:31:15
5/26/2020 23:11:29 Arttu Sademaa M20-M44 Turun Urheiluliitto ry 0:29:31
5/28/2020 13:57:19 Milla Vihavainen N20-N44 Joroisten Urheilijat ry 0:38:39
5/28/2020 13:57:44 Milla Vihavainen N20-N44 Joroisten Urheilijat ry 0:38:39
5/28/2020 20:27:34 Hannu Hiilamo M45-M55 TriathlonSuomi ry 0:36:12
5/31/2020 19:11:41 Mikko Mäkelä M45-M55 TriathlonSuomi ry 0:37:05
5/31/2020 20:28:32 Marjut Hämäläinen N20-N44 Joroisten Urheilijat ry 0:38:12
6/2/2020 12:19:58 Miikka Jokinen M20-M44 Muu seura 0:35:07
6/24/2020 20:06:11 Taavi Dettenborn M20-M44 TriathlonSuomi ry 0:33:41
6/24/2020 20:06:21 Taavi Dettenborn M20-M44 TriathlonSuomi ry 0:33:41
7/27/2020 23:52:02 Anne Majaniemi N20-N44 TriathlonSuomi ry 0:37:26